Location: Windsor
(43.2292°N, 89.3015°W)
Time: 09:36:45
(UTC+00:00)

Tiros 1 - Pass Details

Date: 31 May 2022
Orbit: 629 x 663 km, 48.4° (Epoch: 04 July)

Event Time Altitude Azimuth Distance (km) Brightness Sun altitude
Rises 07:47:54 0° 284° (WNW) 2,917 10.4 -19.9°
Reaches altitude 10° 07:50:19 10° 291° (WNW) 2,013 9.6 -19.6°
Maximum altitude 07:54:45 44° 3° (N) 883 8.2 -19.3°
Drops below altitude 10° 07:59:13 10° 76° (ENE) 2,028 10.3 -18.8°
Sets 08:01:39 0° 83° (E) 2,942 11.1 -18.6°
